Dutch Harbor, AK

5:47 AM AKDT on October 20, 2017 (GMT -0800)
Unalaska

Weather History for PADU - October, 2013

Change the Weather History Date:

Wednesday, October 30, 2013

  Actual Average Record
Temperature  
Mean Temperature 40 °F -  
Max Temperature 41 °F 44 °F 53 °F (2014)
Min Temperature 39 °F 30 °F -13 °F (1984)
Degree Days  
Heating Degree Days 25    
Moisture  
Dew Point 32 °F    
Average Humidity 73    
Maximum Humidity 81    
Minimum Humidity 65    
Precipitation  
Precipitation 0.09 in - - ()
Sea Level Pressure  
Sea Level Pressure 29.55 in    
Wind  
Wind Speed 10 mph (WSW)    
Max Wind Speed 17 mph    
Max Gust Speed 23 mph    
Visibility 10 miles    
Events Rain    
Averages and records for this station are not official NWS values.
T = Trace of Precipitation, MM = Missing Value Source: NWS Daily Summary

Daily Weather History Graph

Daily Weather History Graph

Search for Another Location

Airport or City:

Trip Planner

Search our weather history database for the weather conditions in past years. The results will help you decide how hot, cold, wet, or windy it might be!

Date:

Astronomy

Oct. 30, 2013 Rise Set
Actual Time 10:03 AM AKDT 7:35 PM AKDT
Civil Twilight 9:26 AM AKDT 8:12 PM AKDT
Nautical Twilight 8:44 AM AKDT 8:53 PM AKDT
Astronomical Twilight 8:03 AM AKDT 9:34 PM AKDT
Moon 5:32 AM AKDT (10/30) 5:55 PM AKDT (10/30)
Length of Visible Light 10h 45m
Length of Day
9h 31m
Waning Crescent, 16% of the Moon is Illuminated
Oct 30
Waning Crescent
Nov 3
New
Nov 9
First Quarter
Nov 17
Full
Nov 25
Last Quarter

Hourly Weather History & Observations

Time (AKDT) Temp. Windchill Dew Point Humidity Pressure Visibility Wind Dir Wind Speed Gust Speed Precip Events Conditions
12:56 AM 41.0 °F 33.5 °F 32.0 °F 70% 29.42 in 10.0 mi West 13.8 mph - 0.01 in   Overcast
1:56 AM 41.0 °F 33.1 °F 32.0 °F 70% 29.43 in 10.0 mi WNW 15.0 mph - N/A   Overcast
2:56 AM 39.9 °F 36.7 °F 30.9 °F 70% 29.44 in 10.0 mi SSW 4.6 mph - N/A   Partly Cloudy
3:56 AM 39.9 °F 33.4 °F 30.9 °F 70% 29.45 in 10.0 mi West 10.4 mph - N/A   Mostly Cloudy
4:56 AM 39.9 °F 34.5 °F 30.0 °F 68% 29.46 in 10.0 mi WSW 8.1 mph - 0.00 in   Overcast
5:56 AM 39.9 °F 33.4 °F 30.9 °F 70% 29.46 in 10.0 mi SW 10.4 mph - N/A   Partly Cloudy
6:56 AM 41.0 °F 34.7 °F 30.0 °F 65% 29.48 in 10.0 mi West 10.4 mph - 0.00 in Rain Light Rain
7:56 AM 41.0 °F 34.7 °F 30.0 °F 65% 29.49 in 10.0 mi West 10.4 mph - 0.00 in   Mostly Cloudy
8:15 AM 39.2 °F 33.0 °F 32.0 °F 75% 29.48 in 10.0 mi SW 9.2 mph - 0.00 in Rain Light Rain
8:41 AM 39.2 °F 33.0 °F 32.0 °F 75% 29.48 in 10.0 mi WSW 9.2 mph - 0.00 in Rain Light Rain
8:56 AM 39.9 °F 35.1 °F 32.0 °F 73% 29.50 in 10.0 mi West 6.9 mph - 0.00 in   Overcast
9:10 AM 39.2 °F 33.0 °F 33.8 °F 81% 29.49 in 9.0 mi West 9.2 mph 16.1 mph 0.00 in Rain Light Rain
9:56 AM 39.0 °F 31.8 °F 33.1 °F 79% 29.52 in 10.0 mi West 11.5 mph 19.6 mph 0.01 in Rain Light Rain
10:56 AM 39.9 °F 34.5 °F 33.1 °F 77% 29.54 in 10.0 mi West 8.1 mph - 0.01 in Rain Light Rain
11:40 AM 39.2 °F 37.0 °F 33.8 °F 81% 29.53 in 10.0 mi Variable 3.5 mph - 0.02 in   Overcast
11:56 AM 39.9 °F 33.4 °F 33.1 °F 77% 29.55 in 10.0 mi WSW 10.4 mph 17.3 mph 0.02 in Rain Light Rain
12:56 PM 39.9 °F 34.5 °F 33.1 °F 77% 29.56 in 10.0 mi SW 8.1 mph - 0.01 in   Mostly Cloudy
1:56 PM 39.0 °F 34.8 °F 33.1 °F 79% 29.59 in 10.0 mi WNW 5.8 mph - 0.02 in Rain Light Rain
2:10 PM 39.2 °F 33.0 °F 33.8 °F 81% 29.58 in 9.0 mi West 9.2 mph - 0.01 in Rain Light Rain
2:27 PM 39.2 °F 33.6 °F 33.8 °F 81% 29.57 in 10.0 mi SW 8.1 mph - 0.01 in   Mostly Cloudy
2:56 PM 41.0 °F 34.7 °F 32.0 °F 70% 29.59 in 9.0 mi WSW 10.4 mph - 0.01 in Rain Light Rain
3:56 PM 39.9 °F 35.8 °F 33.1 °F 77% 29.59 in 10.0 mi Variable 5.8 mph - 0.00 in Rain Light Rain
4:56 PM 39.9 °F 33.4 °F 32.0 °F 73% 29.60 in 10.0 mi SW 10.4 mph - 0.00 in   Mostly Cloudy
5:56 PM 41.0 °F 32.5 °F 30.9 °F 67% 29.61 in 10.0 mi West 17.3 mph 23.0 mph 0.00 in Rain Light Rain
6:56 PM 41.0 °F 34.7 °F 30.9 °F 67% 29.63 in 10.0 mi WSW 10.4 mph - 0.00 in Rain Light Rain
7:56 PM 41.0 °F 34.7 °F 30.9 °F 67% 29.65 in 10.0 mi WSW 10.4 mph 19.6 mph 0.00 in   Mostly Cloudy
8:56 PM 41.0 °F 35.2 °F 30.0 °F 65% 29.67 in 10.0 mi WSW 9.2 mph - N/A   Mostly Cloudy
9:56 PM 41.0 °F 36.4 °F 30.9 °F 67% 29.68 in 10.0 mi West 6.9 mph - N/A   Mostly Cloudy
10:56 PM 39.9 °F 36.7 °F 32.0 °F 73% 29.69 in 10.0 mi WNW 4.6 mph - 0.00 in Rain Light Rain
11:56 PM 39.0 °F 31.0 °F 32.0 °F 76% 29.73 in 10.0 mi West 13.8 mph - 0.00 in Rain Light Rain